カタログに戻る

STARLINK-34341

運用中通信SSO
NORAD 64161·PAYLOAD·🇺🇸 United States

打ち上げ May 27, 2025 から Vandenberg Space Force Base

Loading…

次のパス (今後24時間)

TLE

最新Source: CelesTrak SupGP

元期: Sep 14, 2026, 22:37 UTC

1 64161C 25112R   26257.94284722  .00010984  00000+0  34099-3 0  2575
2 64161  97.2835 305.0497 0000990  98.3321 248.9464 15.33432798    19

AllMySatでSTARLINK-34341をリアルタイム追跡

Download on the App Store